Location: Demmingen
(48.6757°N, 10.4375°E)
Time: 23:08:26
(UTC+00:00)

Meteor 1-4 Rocket - Pass Details

Date: 23 May 2024
Orbit: 359 x 380 km, 81.2° (Epoch: 14 June)

Event Time Altitude Azimuth Distance (km) Brightness Sun altitude
Exits shadow 00:56:13 64° 186° (S) 406 1.8 -17.1°
Maximum altitude 00:56:36 88° 99° (E) 367 1.8 -17.1°
Drops below altitude 10° 00:59:32 10° 12° (NNE) 1,357 6.1 -16.9°
Sets 01:01:31 0° 12° (NNE) 2,213 7.5 -16.7°
